| time (UTC) | temp F | wind direction | speed MPH | gust MPH | rain 1hr in | rain 24hr in | rain mn in | humidity % | barometer mb |
| 20260502170249 | 55 | 330 | 0.0 | 0.0 | 0.00 | 0.00 | 0.00 | 43 | 1017.0 |
| 20260502164237 | 54 | 128 | 0.0 | 0.0 | 0.00 | 0.00 | 0.00 | 43 | 1017.2 |
| 20260502163732 | 53 | 234 | 0.0 | 0.0 | 0.00 | 0.00 | 0.00 | 46 | 1017.1 |
| 20260502163229 | 54 | 82 | 0.0 | 0.0 | 0.00 | 0.00 | 0.00 | 44 | 1017.3 |
| 20260502162726 | 54 | 71 | 0.0 | 0.0 | 0.00 | 0.00 | 0.00 | 46 | 1017.1 |
| 20260502162223 | 55 | 79 | 0.0 | 0.0 | 0.00 | 0.00 | 0.00 | 43 | 1017.2 |
| 20260502161720 | 56 | 221 | 0.0 | 0.0 | 0.00 | 0.00 | 0.00 | 42 | 1017.1 |
| 20260502161216 | 55 | 235 | 1.0 | 1.0 | 0.00 | 0.00 | 0.00 | 42 | 1017.2 |
| 20260502160715 | 55 | 267 | 2.0 | 2.0 | 0.00 | 0.00 | 0.00 | 39 | 1017.2 |
| 20260502160213 | 54 | 88 | 0.0 | 0.0 | 0.00 | 0.00 | 0.00 | 41 | 1017.2 |
| 20260502152127 | 52 | 113 | 0.0 | 0.0 | 0.00 | 0.00 | 0.00 | 45 | 1017.2 |
| 20260502151624 | 53 | 122 | 0.0 | 0.0 | 0.00 | 0.00 | 0.00 | 43 | 1017.1 |
| 20260502151121 | 51 | 84 | 0.0 | 0.0 | 0.00 | 0.00 | 0.00 | 48 | 1016.8 |
| 20260502150618 | 51 | 5 | 1.0 | 2.0 | 0.00 | 0.00 | 0.00 | 42 | 1016.8 |
| 20260502150114 | 52 | 163 | 0.0 | 0.0 | 0.00 | 0.00 | 0.00 | 47 | 1017.1 |
| 20260502130503 | 44 | 96 | 0.0 | 0.0 | 0.00 | 0.00 | 0.00 | 58 | 1016.6 |
| 20260502123446 | 41 | 130 | 0.0 | 0.0 | 0.00 | 0.00 | 0.00 | 61 | 1016.5 |
| 20260502122943 | 41 | 133 | 0.0 | 0.0 | 0.00 | 0.00 | 0.00 | 59 | 1016.6 |
| 20260502122439 | 41 | 91 | 0.0 | 0.0 | 0.00 | 0.00 | 0.00 | 64 | 1016.7 |
| 20260502121937 | 41 | 118 | 0.0 | 0.0 | 0.00 | 0.00 | 0.00 | 67 | 1016.3 |
| 20260502121434 | 41 | 128 | 0.0 | 0.0 | 0.00 | 0.00 | 0.00 | 70 | 1016.3 |
| 20260502120932 | 41 | 135 | 0.0 | 0.0 | 0.00 | 0.00 | 0.00 | 76 | 1016.3 |
| 20260502120428 | 41 | 140 | 0.0 | 0.0 | 0.00 | 0.00 | 0.00 | 79 | 1016.1 |
| 20260502115925 | 41 | 126 | 0.0 | 0.0 | 0.00 | 0.00 | 0.00 | 79 | 1016.1 |
| 20260502115422 | 41 | 109 | 0.0 | 0.0 | 0.00 | 0.00 | 0.00 | 78 | 1016.0 |
| 20260502114918 | 41 | 40 | 0.0 | 0.0 | 0.00 | 0.00 | 0.00 | 82 | 1016.0 |
| 20260502114415 | 41 | 94 | 0.0 | 0.0 | 0.00 | 0.00 | 0.00 | 82 | 1015.9 |
| 20260502113912 | 41 | 74 | 0.0 | 0.0 | 0.00 | 0.00 | 0.00 | 82 | 1015.9 |
| 20260502113410 | 40 | 120 | 0.0 | 0.0 | 0.00 | 0.00 | 0.00 | 81 | 1015.7 |
| 20260502112909 | 40 | 84 | 0.0 | 0.0 | 0.00 | 0.00 | 0.00 | 81 | 1015.8 |
| 20260502112405 | 40 | 61 | 0.0 | 0.0 | 0.00 | 0.00 | 0.00 | 81 | 1015.7 |
| 20260502111903 | 40 | 53 | 0.0 | 0.0 | 0.00 | 0.00 | 0.00 | 81 | 1015.8 |
| 20260502111400 | 40 | 104 | 0.0 | 0.0 | 0.00 | 0.00 | 0.00 | 80 | 1015.6 |
| 20260502110857 | 40 | 89 | 0.0 | 0.0 | 0.00 | 0.00 | 0.00 | 80 | 1015.7 |
| 20260502110355 | 41 | 91 | 0.0 | 0.0 | 0.00 | 0.00 | 0.00 | 80 | 1015.5 |
| 20260502105852 | 41 | 133 | 0.0 | 0.0 | 0.00 | 0.00 | 0.00 | 79 | 1015.9 |
| 20260502105349 | 41 | 110 | 0.0 | 0.0 | 0.00 | 0.00 | 0.00 | 79 | 1015.6 |
| 20260502104847 | 41 | 93 | 0.0 | 0.0 | 0.00 | 0.00 | 0.00 | 79 | 1015.9 |
| 20260502104344 | 41 | 111 | 0.0 | 0.0 | 0.00 | 0.00 | 0.00 | 79 | 1015.7 |
| 20260502103841 | 41 | 128 | 0.0 | 0.0 | 0.00 | 0.00 | 0.00 | 80 | 1015.7 |
| 20260502103339 | 41 | 132 | 0.0 | 0.0 | 0.00 | 0.00 | 0.00 | 80 | 1016.0 |
| 20260502102836 | 40 | 133 | 0.0 | 0.0 | 0.00 | 0.00 | 0.00 | 80 | 1015.8 |
| 20260502102332 | 40 | 124 | 0.0 | 0.0 | 0.00 | 0.00 | 0.00 | 83 | 1015.7 |
| 20260502101830 | 40 | 137 | 0.0 | 0.0 | 0.00 | 0.00 | 0.00 | 85 | 1015.9 |
| 20260502101328 | 39 | 132 | 0.0 | 0.0 | 0.00 | 0.00 | 0.00 | 85 | 1015.8 |
| 20260502100826 | 39 | 144 | 0.0 | 0.0 | 0.00 | 0.00 | 0.00 | 85 | 1015.6 |
| 20260502100325 | 39 | 144 | 0.0 | 0.0 | 0.00 | 0.00 | 0.00 | 87 | 1015.9 |
| 20260502091258 | 39 | 140 | 0.0 | 0.0 | 0.00 | 0.00 | 0.00 | 90 | 1015.7 |
| 20260502090756 | 39 | 136 | 0.0 | 0.0 | 0.00 | 0.00 | 0.00 | 85 | 1015.8 |
| 20260502090252 | 39 | 136 | 0.0 | 0.0 | 0.00 | 0.00 | 0.00 | 87 | 1015.5 |
| 20260502071153 | 40 | 111 | 0.0 | 0.0 | 0.00 | 0.00 | 0.00 | 77 | 1015.5 |
| 20260502070651 | 40 | 110 | 0.0 | 0.0 | 0.00 | 0.00 | 0.00 | 79 | 1015.4 |
| 20260502070149 | 41 | 91 | 0.0 | 0.0 | 0.00 | 0.00 | 0.00 | 79 | 1015.6 |
| 20260502065647 | 40 | 130 | 0.0 | 0.0 | 0.00 | 0.00 | 0.00 | 78 | 1015.7 |
| 20260502065144 | 40 | 130 | 0.0 | 0.0 | 0.00 | 0.00 | 0.00 | 79 | 1015.8 |
| 20260502064643 | 41 | 130 | 0.0 | 0.0 | 0.00 | 0.00 | 0.00 | 80 | 1015.7 |
| 20260502064139 | 41 | 130 | 0.0 | 0.0 | 0.00 | 0.00 | 0.00 | 80 | 1015.6 |
| 20260502063637 | 41 | 128 | 0.0 | 0.0 | 0.00 | 0.00 | 0.00 | 80 | 1015.8 |
| 20260502063135 | 41 | 136 | 0.0 | 0.0 | 0.00 | 0.00 | 0.00 | 80 | 1015.7 |
| 20260502062632 | 41 | 134 | 0.0 | 0.0 | 0.00 | 0.00 | 0.00 | 79 | 1015.7 |
| 20260502062130 | 41 | 136 | 0.0 | 0.0 | 0.00 | 0.00 | 0.00 | 78 | 1015.8 |
| 20260502061628 | 41 | 133 | 0.0 | 0.0 | 0.00 | 0.00 | 0.00 | 79 | 1015.9 |
| 20260502061125 | 41 | 134 | 0.0 | 0.0 | 0.00 | 0.00 | 0.00 | 77 | 1015.9 |
| 20260502060625 | 41 | 133 | 0.0 | 0.0 | 0.00 | 0.00 | 0.00 | 78 | 1015.8 |
| 20260502060122 | 41 | 129 | 0.0 | 0.0 | 0.00 | 0.00 | 0.00 | 78 | 1015.9 |
| 20260502055620 | 41 | 121 | 0.0 | 0.0 | 0.00 | 0.00 | 0.00 | 80 | 1015.8 |
| 20260502055117 | 42 | 117 | 0.0 | 0.0 | 0.00 | 0.00 | 0.00 | 80 | 1016.2 |
| 20260502054616 | 41 | 117 | 0.0 | 0.0 | 0.00 | 0.00 | 0.00 | 80 | 1016.2 |
| 20260502054113 | 41 | 132 | 0.0 | 0.0 | 0.00 | 0.00 | 0.00 | 80 | 1016.1 |
| 20260502053610 | 41 | 117 | 0.0 | 0.0 | 0.00 | 0.00 | 0.00 | 82 | 1016.1 |
| 20260502053108 | 41 | 142 | 0.0 | 0.0 | 0.00 | 0.00 | 0.00 | 81 | 1016.1 |
| 20260502052606 | 41 | 138 | 0.0 | 0.0 | 0.00 | 0.00 | 0.00 | 83 | 1016.1 |
| 20260502052104 | 41 | 137 | 0.0 | 0.0 | 0.00 | 0.00 | 0.00 | 84 | 1015.7 |
| 20260502051602 | 41 | 128 | 0.0 | 0.0 | 0.00 | 0.00 | 0.00 | 84 | 1015.8 |
| 20260502051059 | 41 | 137 | 0.0 | 0.0 | 0.00 | 0.00 | 0.00 | 83 | 1016.0 |
| 20260502050555 | 42 | 140 | 0.0 | 0.0 | 0.00 | 0.00 | 0.00 | 81 | 1015.8 |
| 20260502050052 | 42 | 139 | 0.0 | 0.0 | 0.00 | 0.00 | 0.00 | 77 | 1015.9 |
| 20260502045549 | 42 | 138 | 0.0 | 0.0 | 0.00 | 0.00 | 0.00 | 77 | 1015.7 |
| 20260502045046 | 42 | 140 | 0.0 | 0.0 | 0.00 | 0.00 | 0.00 | 77 | 1015.8 |
| 20260502044542 | 42 | 134 | 0.0 | 0.0 | 0.00 | 0.00 | 0.00 | 79 | 1015.7 |
| 20260502044039 | 42 | 132 | 0.0 | 0.0 | 0.00 | 0.00 | 0.00 | 84 | 1015.7 |
| 20260502043537 | 42 | 133 | 0.0 | 0.0 | 0.00 | 0.00 | 0.00 | 83 | 1015.8 |
| 20260502043033 | 43 | 140 | 0.0 | 0.0 | 0.00 | 0.00 | 0.00 | 80 | 1015.8 |
| 20260502042528 | 43 | 140 | 0.0 | 0.0 | 0.00 | 0.00 | 0.00 | 78 | 1016.0 |
| 20260502042025 | 43 | 137 | 0.0 | 0.0 | 0.00 | 0.00 | 0.00 | 77 | 1015.8 |
| 20260502041523 | 43 | 126 | 0.0 | 0.0 | 0.00 | 0.00 | 0.00 | 76 | 1015.8 |
| 20260502041020 | 43 | 128 | 0.0 | 0.0 | 0.00 | 0.00 | 0.00 | 79 | 1015.7 |
| 20260502040517 | 42 | 129 | 0.0 | 0.0 | 0.00 | 0.00 | 0.00 | 82 | 1015.8 |
| 20260502040014 | 42 | 138 | 0.0 | 0.0 | 0.00 | 0.09 | 0.09 | 85 | 1015.5 |
| 20260502035509 | 42 | 136 | 0.0 | 0.0 | 0.00 | 0.09 | 0.09 | 88 | 1015.6 |
| 20260502035007 | 42 | 126 | 0.0 | 0.0 | 0.00 | 0.09 | 0.09 | 88 | 1015.8 |
| 20260502034505 | 43 | 133 | 0.0 | 0.0 | 0.00 | 0.09 | 0.09 | 86 | 1015.7 |
| 20260502034003 | 43 | 140 | 0.0 | 0.0 | 0.00 | 0.09 | 0.09 | 85 | 1015.8 |
| 20260502033501 | 43 | 140 | 0.0 | 0.0 | 0.00 | 0.09 | 0.09 | 84 | 1015.8 |
| 20260502032957 | 44 | 136 | 0.0 | 0.0 | 0.00 | 0.09 | 0.09 | 83 | 1016.0 |
| 20260502032454 | 44 | 140 | 0.0 | 0.0 | 0.00 | 0.09 | 0.09 | 83 | 1015.8 |
| 20260502031950 | 44 | 139 | 0.0 | 0.0 | 0.00 | 0.09 | 0.09 | 81 | 1015.6 |
| 20260502031449 | 44 | 128 | 0.0 | 0.0 | 0.00 | 0.09 | 0.09 | 82 | 1015.7 |
| 20260502030947 | 44 | 127 | 0.0 | 0.0 | 0.00 | 0.09 | 0.09 | 83 | 1016.1 |
| 20260502030445 | 44 | 118 | 0.0 | 0.0 | 0.00 | 0.09 | 0.09 | 86 | 1016.0 |
| 20260502025942 | 44 | 137 | 0.0 | 0.0 | 0.00 | 0.09 | 0.09 | 88 | 1016.2 |
| 20260502025439 | 44 | 138 | 0.0 | 0.0 | 0.00 | 0.09 | 0.09 | 87 | 1015.9 |
| 20260502024937 | 45 | 145 | 0.0 | 0.0 | 0.00 | 0.09 | 0.09 | 87 | 1016.1 |
| 20260502024435 | 45 | 144 | 0.0 | 0.0 | 0.00 | 0.09 | 0.09 | 86 | 1015.9 |
| 20260502023933 | 45 | 129 | 0.0 | 0.0 | 0.00 | 0.09 | 0.09 | 86 | 1016.0 |
| 20260502023430 | 45 | 147 | 0.0 | 0.0 | 0.00 | 0.09 | 0.09 | 86 | 1015.8 |
| 20260502022928 | 45 | 141 | 0.0 | 0.0 | 0.00 | 0.09 | 0.09 | 86 | 1015.4 |
| 20260502022424 | 45 | 141 | 0.0 | 0.0 | 0.00 | 0.09 | 0.09 | 83 | 1015.4 |
| 20260502021921 | 45 | 141 | 0.0 | 0.0 | 0.00 | 0.09 | 0.09 | 81 | 1015.5 |
| 20260502021418 | 45 | 141 | 0.0 | 0.0 | 0.00 | 0.09 | 0.09 | 82 | 1015.3 |
| 20260502020916 | 46 | 140 | 0.0 | 0.0 | 0.00 | 0.09 | 0.09 | 82 | 1015.4 |
| 20260502020414 | 46 | 140 | 0.0 | 0.0 | 0.00 | 0.09 | 0.09 | 82 | 1015.2 |
| 20260502015910 | 46 | 140 | 0.0 | 0.0 | 0.00 | 0.09 | 0.09 | 81 | 1015.3 |
| 20260502015407 | 46 | 140 | 0.0 | 0.0 | 0.00 | 0.09 | 0.09 | 81 | 1015.1 |
| 20260502014904 | 46 | 140 | 0.0 | 0.0 | 0.00 | 0.09 | 0.09 | 79 | 1015.1 |
| 20260502014401 | 46 | 140 | 0.0 | 0.0 | 0.00 | 0.09 | 0.09 | 78 | 1015.2 |
| 20260502013857 | 46 | 140 | 0.0 | 0.0 | 0.00 | 0.09 | 0.09 | 79 | 1015.0 |
| 20260502013352 | 45 | 140 | 0.0 | 0.0 | 0.00 | 0.09 | 0.09 | 77 | 1014.8 |
| 20260502012849 | 46 | 140 | 0.0 | 0.0 | 0.00 | 0.09 | 0.09 | 79 | 1014.9 |
| 20260502012348 | 46 | 137 | 0.0 | 0.0 | 0.00 | 0.09 | 0.09 | 80 | 1014.6 |
| 20260502011844 | 46 | 133 | 0.0 | 0.0 | 0.00 | 0.09 | 0.09 | 78 | 1014.5 |
| 20260502011340 | 46 | 130 | 0.0 | 0.0 | 0.00 | 0.09 | 0.09 | 76 | 1014.5 |
| 20260502010838 | 46 | 129 | 0.0 | 0.0 | 0.00 | 0.09 | 0.09 | 74 | 1014.3 |
| 20260502010334 | 46 | 128 | 0.0 | 0.0 | 0.00 | 0.09 | 0.09 | 74 | 1014.2 |
| 20260502005831 | 46 | 128 | 0.0 | 0.0 | 0.00 | 0.09 | 0.09 | 74 | 1014.0 |
| 20260502005329 | 47 | 128 | 0.0 | 0.0 | 0.00 | 0.09 | 0.09 | 74 | 1014.3 |
| 20260502004826 | 47 | 94 | 0.0 | 0.0 | 0.00 | 0.09 | 0.09 | 73 | 1014.2 |
| 20260502004322 | 47 | 91 | 0.0 | 0.0 | 0.00 | 0.09 | 0.09 | 73 | 1014.1 |
| 20260502003820 | 47 | 89 | 0.0 | 0.0 | 0.00 | 0.09 | 0.09 | 72 | 1014.0 |
| 20260502003317 | 47 | 89 | 0.0 | 0.0 | 0.00 | 0.09 | 0.09 | 73 | 1014.0 |
| 20260502002813 | 48 | 89 | 0.0 | 0.0 | 0.00 | 0.09 | 0.09 | 73 | 1014.0 |
| 20260502002310 | 48 | 89 | 0.0 | 0.0 | 0.00 | 0.09 | 0.09 | 72 | 1013.8 |
| 20260502001808 | 48 | 89 | 0.0 | 0.0 | 0.00 | 0.09 | 0.09 | 71 | 1013.7 |
| 20260502001306 | 48 | 114 | 0.0 | 0.0 | 0.00 | 0.09 | 0.09 | 71 | 1013.6 |
| 20260502000803 | 48 | 112 | 0.0 | 0.0 | 0.00 | 0.09 | 0.09 | 70 | 1013.6 |
| 20260502000302 | 49 | 106 | 0.0 | 0.0 | 0.00 | 0.09 | 0.09 | 69 | 1013.6 |
| 20260501235756 | 49 | 136 | 0.0 | 0.0 | 0.00 | 0.09 | 0.09 | 68 | 1013.7 |
| 20260501235252 | 49 | 130 | 0.0 | 0.0 | 0.00 | 0.09 | 0.09 | 68 | 1013.5 |
| 20260501234748 | 49 | 125 | 0.0 | 0.0 | 0.00 | 0.09 | 0.09 | 67 | 1013.6 |
| 20260501234245 | 49 | 133 | 0.0 | 0.0 | 0.00 | 0.09 | 0.09 | 67 | 1013.4 |
| 20260501233743 | 49 | 125 | 0.0 | 0.0 | 0.00 | 0.09 | 0.09 | 66 | 1013.7 |
| 20260501233241 | 49 | 94 | 0.0 | 0.0 | 0.00 | 0.09 | 0.09 | 68 | 1013.7 |
| 20260501232736 | 49 | 62 | 0.0 | 0.0 | 0.00 | 0.09 | 0.09 | 65 | 1013.9 |
| 20260501232233 | 49 | 88 | 0.0 | 0.0 | 0.00 | 0.09 | 0.09 | 66 | 1013.9 |
| 20260501231731 | 50 | 25 | 0.0 | 0.0 | 0.00 | 0.09 | 0.09 | 64 | 1013.9 |
| 20260501231229 | 50 | 84 | 0.0 | 0.0 | 0.00 | 0.09 | 0.09 | 67 | 1013.6 |
| 20260501230727 | 50 | 174 | 0.0 | 0.0 | 0.00 | 0.09 | 0.09 | 69 | 1013.8 |
| 20260501230226 | 50 | 128 | 0.0 | 0.0 | 0.00 | 0.09 | 0.09 | 67 | 1013.7 |
| 20260501225723 | 50 | 76 | 0.0 | 0.0 | 0.00 | 0.09 | 0.09 | 68 | 1014.0 |
| 20260501225220 | 50 | 70 | 0.0 | 0.0 | 0.00 | 0.09 | 0.09 | 66 | 1013.7 |
| 20260501224715 | 50 | 189 | 0.0 | 0.0 | 0.00 | 0.09 | 0.09 | 67 | 1014.1 |
| 20260501224213 | 50 | 90 | 0.0 | 0.0 | 0.00 | 0.09 | 0.09 | 68 | 1013.9 |
| 20260501223709 | 50 | 44 | 0.0 | 0.0 | 0.00 | 0.09 | 0.09 | 66 | 1013.9 |
| 20260501223206 | 50 | 124 | 0.0 | 0.0 | 0.00 | 0.09 | 0.09 | 70 | 1014.1 |
| 20260501222702 | 50 | 55 | 0.0 | 0.0 | 0.00 | 0.09 | 0.09 | 69 | 1014.2 |
| 20260501222159 | 50 | 51 | 0.0 | 0.0 | 0.00 | 0.09 | 0.09 | 72 | 1014.1 |
| 20260501221656 | 50 | 95 | 0.0 | 0.0 | 0.00 | 0.09 | 0.09 | 69 | 1014.3 |
| 20260501221153 | 50 | 27 | 1.0 | 3.0 | 0.00 | 0.09 | 0.09 | 67 | 1014.2 |
| 20260501220651 | 50 | 90 | 0.0 | 0.0 | 0.00 | 0.09 | 0.09 | 69 | 1014.2 |
| 20260501220148 | 50 | 14 | 0.0 | 0.0 | 0.00 | 0.09 | 0.09 | 68 | 1014.1 |
| 20260501215645 | 50 | 55 | 0.0 | 1.0 | 0.00 | 0.09 | 0.09 | 66 | 1014.2 |
| 20260501215140 | 51 | 215 | 0.0 | 0.0 | 0.00 | 0.09 | 0.09 | 63 | 1014.1 |
| 20260501214635 | 51 | 17 | 0.0 | 0.0 | 0.00 | 0.09 | 0.09 | 62 | 1013.9 |
| 20260501214130 | 52 | 349 | 0.0 | 0.0 | 0.00 | 0.09 | 0.09 | 63 | 1013.7 |
| 20260501213628 | 52 | 79 | 0.0 | 0.0 | 0.00 | 0.09 | 0.09 | 60 | 1014.1 |
| 20260501213124 | 53 | 35 | 0.0 | 0.0 | 0.00 | 0.09 | 0.09 | 58 | 1013.7 |
| 20260501212621 | 53 | 153 | 0.0 | 0.0 | 0.00 | 0.09 | 0.09 | 62 | 1013.7 |
| 20260501212117 | 53 | 19 | 0.0 | 0.0 | 0.00 | 0.09 | 0.09 | 65 | 1014.0 |
| 20260501211614 | 53 | 268 | 0.0 | 0.0 | 0.00 | 0.09 | 0.09 | 63 | 1013.9 |
| 20260501211112 | 53 | 165 | 0.0 | 0.0 | 0.00 | 0.09 | 0.09 | 62 | 1013.9 |
| 20260501210608 | 53 | 95 | 0.0 | 0.0 | 0.00 | 0.09 | 0.09 | 63 | 1013.6 |
| 20260501210105 | 52 | 265 | 0.0 | 0.0 | 0.00 | 0.09 | 0.09 | 65 | 1013.5 |
| 20260501205601 | 53 | 252 | 2.0 | 3.0 | 0.00 | 0.09 | 0.09 | 60 | 1013.8 |
| 20260501205059 | 53 | 239 | 0.0 | 0.0 | 0.00 | 0.09 | 0.09 | 61 | 1013.8 |
| 20260501204555 | 52 | 292 | 0.0 | 0.0 | 0.00 | 0.09 | 0.09 | 63 | 1013.7 |
| 20260501204051 | 52 | 172 | 0.0 | 0.0 | 0.00 | 0.09 | 0.09 | 67 | 1014.1 |
| 20260501203548 | 52 | 29 | 0.0 | 0.0 | 0.00 | 0.09 | 0.09 | 65 | 1014.0 |
| 20260501203045 | 52 | 255 | 3.0 | 3.0 | 0.00 | 0.09 | 0.09 | 62 | 1014.1 |
| 20260501202542 | 53 | 20 | 0.0 | 0.0 | 0.00 | 0.09 | 0.09 | 61 | 1014.0 |
| 20260501202039 | 54 | 152 | 0.0 | 0.0 | 0.00 | 0.09 | 0.09 | 63 | 1014.1 |
| 20260501201536 | 53 | 144 | 0.0 | 0.0 | 0.00 | 0.09 | 0.09 | 63 | 1014.1 |
| 20260501201033 | 53 | 136 | 0.0 | 0.0 | 0.00 | 0.09 | 0.09 | 64 | 1014.0 |
| 20260501200530 | 52 | 64 | 0.0 | 0.0 | 0.00 | 0.09 | 0.09 | 60 | 1014.1 |
| 20260501200027 | 52 | 67 | 0.0 | 0.0 | 0.00 | 0.09 | 0.09 | 62 | 1014.0 |
| 20260501195525 | 53 | 66 | 0.0 | 0.0 | 0.00 | 0.09 | 0.09 | 60 | 1014.2 |
| 20260501195020 | 54 | 74 | 0.0 | 0.0 | 0.00 | 0.09 | 0.09 | 58 | 1014.1 |
| 20260501194515 | 55 | 139 | 0.0 | 0.0 | 0.00 | 0.09 | 0.09 | 53 | 1014.0 |
| 20260501194012 | 57 | 68 | 0.0 | 0.0 | 0.00 | 0.09 | 0.09 | 54 | 1014.0 |
| 20260501193510 | 56 | 99 | 0.0 | 0.0 | 0.00 | 0.09 | 0.09 | 55 | 1013.9 |
| 20260501193008 | 56 | 41 | 0.0 | 0.0 | 0.00 | 0.09 | 0.09 | 58 | 1014.0 |
| 20260501192504 | 55 | 185 | 0.0 | 0.0 | 0.00 | 0.09 | 0.09 | 59 | 1014.1 |
| 20260501192002 | 55 | 151 | 0.0 | 0.0 | 0.00 | 0.09 | 0.09 | 61 | 1014.1 |
| 20260501191459 | 55 | 176 | 0.0 | 0.0 | 0.00 | 0.09 | 0.09 | 63 | 1014.0 |
| 20260501190956 | 52 | 81 | 0.0 | 0.0 | 0.00 | 0.09 | 0.09 | 65 | 1014.0 |
| 20260501190451 | 53 | 30 | 0.0 | 0.0 | 0.00 | 0.09 | 0.09 | 61 | 1013.9 |
| 20260501185947 | 55 | 241 | 3.0 | 3.0 | 0.00 | 0.09 | 0.09 | 61 | 1014.1 |
| 20260501185443 | 54 | 105 | 0.0 | 0.0 | 0.00 | 0.09 | 0.09 | 64 | 1014.0 |
| 20260501184939 | 53 | 213 | 0.0 | 0.0 | 0.00 | 0.09 | 0.09 | 67 | 1014.0 |
| 20260501184436 | 54 | 143 | 0.0 | 0.0 | 0.00 | 0.09 | 0.09 | 61 | 1013.8 |
| 20260501183930 | 53 | 39 | 0.0 | 0.0 | 0.00 | 0.09 | 0.09 | 63 | 1013.9 |
| 20260501183428 | 53 | 129 | 0.0 | 0.0 | 0.00 | 0.09 | 0.09 | 69 | 1014.0 |
| 20260501182924 | 56 | 134 | 0.0 | 0.0 | 0.00 | 0.09 | 0.09 | 65 | 1013.9 |
| 20260501182421 | 55 | 23 | 1.0 | 1.0 | 0.00 | 0.09 | 0.09 | 56 | 1013.9 |
| 20260501181918 | 52 | 262 | 0.0 | 0.0 | 0.00 | 0.09 | 0.09 | 65 | 1013.9 |
| 20260501181415 | 52 | 358 | 0.0 | 0.0 | 0.00 | 0.09 | 0.09 | 64 | 1013.8 |
| 20260501180912 | 53 | 51 | 0.0 | 1.0 | 0.00 | 0.09 | 0.09 | 59 | 1014.0 |
| 20260501180409 | 54 | 63 | 0.0 | 0.0 | 0.00 | 0.09 | 0.09 | 65 | 1013.9 |
| 20260501175905 | 53 | 95 | 0.0 | 0.0 | 0.00 | 0.09 | 0.09 | 63 | 1013.9 |
| 20260501175402 | 56 | 355 | 0.0 | 0.0 | 0.00 | 0.09 | 0.09 | 63 | 1013.9 |
| 20260501174859 | 56 | 331 | 0.0 | 0.0 | 0.00 | 0.09 | 0.09 | 63 | 1014.0 |
| 20260501174356 | 54 | 39 | 0.0 | 0.0 | 0.00 | 0.09 | 0.09 | 63 | 1014.0 |
| 20260501173854 | 54 | 23 | 0.0 | 0.0 | 0.00 | 0.09 | 0.09 | 62 | 1013.7 |
| 20260501173352 | 55 | 5 | 0.0 | 0.0 | 0.00 | 0.09 | 0.09 | 61 | 1013.9 |
| 20260501172847 | 56 | 71 | 1.0 | 3.0 | 0.00 | 0.09 | 0.09 | 58 | 1013.9 |
| 20260501172342 | 55 | 182 | 0.0 | 0.0 | 0.00 | 0.09 | 0.09 | 68 | 1014.1 |